Lid_Strength_Index
4 4 4 4 5 6 8 8 9 9 9 9 9 9 10 10 10 10 9 8 8 8 9 10 10 9 10 11 10 10 10 9 9 10 9 8 6 5 6 5 5 6 7
5 5 5 5 6 7 7 9 9 9 8 9 9 9 9 9 9 9 9 8 8 9 9 10 10 10 10 11 10 10 10 10 10 10 11 12 10 8 8 7 7 8 9
6 6 6 6 6 7 7 8 8 8 8 8 8 9 9 9 9 9 9 8 8 8 9 10 10 10 10 11 11 10 10 11 11 10 11 13 13 11 9 9 9 10 10
5 6 6 6 6 6 7 8 8 8 8 8 8 9 9 9 8 8 9 9 9 9 9 9 10 10 10 11 10 10 10 11 12 11 9 10 10 12 12 10 10 10 10
6 5 6 6 6 7 8 8 8 8 8 8 8 9 9 8 8 9 9 9 9 9 9 9 10 10 10 10 11 11 11 11 11 11 11 11 11 11 12 13 13 12 11
6 5 6 6 7 7 7 8 8 8 8 9 9 9 8 9 9 10 10 10 10 9 9 9 9 10 10 11 11 11 11 11 11 11 11 11 12 13 14 15 14 14 12
7 7 7 7 8 8 8 8 8 9 9 9 9 8 9 9 9 10 10 10 10 9 9 9 9 10 10 10 11 11 12 12 12 12 12 12 12 12 13 14 14 15 13
8 7 7 7 8 8 9 9 9 9 9 10 9 9 9 9 9 9 9 9 10 10 9 9 9 9 10 11 11 11 12 12 12 13 13 13 13 12 13 13 14 15 15
8 7 8 8 9 9 9 9 8 8 8 9 9 9 9 9 10 10 9 10 9 8 9 9 9 10 11 11 12 12 12 13 13 13 13 13 13 13 13 13 13 14 16
8 7 8 8 9 8 8 8 8 8 8 9 9 9 10 10 10 10 10 10 10 9 10 11 11 11 11 12 12 12 13 13 13 13 14 14 14 14 13 13 13 13 14
9 8 8 8 8 8 8 8 8 9 9 9 10 10 10 10 11 11 12 12 11 11 12 12 13 13 14 14 15 15 15 15 15 15 15 15 14 14 14 14 13 14 14
9 9 8 8 8 8 9 9 9 9 10 10 10 11 12 12 12 13 14 14 15 14 14 14 14 15 15 16 16 16 16 16 16 16 16 15 13 14 14 14 14 14 13
11 11 10 9 9 10 10 10 10 11 11 11 11 13 14 15 15 15 15 15 15 15 15 15 15 15 15 16 16 16 16 16 16 15 15 15 14 14 14 14 14 13 11
11 11 11 11 11 11 11 12 12 12 12 13 14 15 15 15 15 15 15 15 15 15 15 15 16 16 16 15 15 15 15 15 14 14 14 14 14 14 13 13 13 11 12
12 12 12 13 13 13 13 14 14 14 14 14 15 15 15 15 15 15 15 15 15 15 15 16 16 16 16 14 14 14 14 14 14 14 13 13 11 9 9 10 11 11 12
12 12 12 13 14 14 14 14 14 15 14 15 15 15 15 15 15 15 16 15 16 16 16 17 16 16 15 12 11 11 14 14 14 14 14 13 11 10 8 7 7 7 9
12 12 13 13 15 15 14 15 15 15 15 15 15 15 15 15 15 16 16 16 17 17 17 17 16 16 16 11 10 10 13 14 14 14 13 12 10 10 11 9 7 6 5
12 13 14 15 16 16 16 16 16 15 15 15 15 15 15 16 16 16 17 17 17 17 16 16 16 16 15 11 10 10 13 13 13 13 12 12 12 11 9 9 9 9 7
12 13 14 15 16 16 16 16 16 15 15 16 16 16 16 17 17 17 17 17 17 16 16 16 16 16 15 11 10 10 12 13 13 12 11 11 11 7 6 7 7 7 7
14 16 16 16 16 16 16 16 16 16 17 17 17 16 16 16 17 17 17 16 17 16 16 15 15 14 14 11 9 9 11 13 12 11 11 7 7 6 5 6 7 9 8
15 16 16 16 16 17 17 17 17 17 16 16 16 16 16 16 16 17 17 17 17 16 16 16 15 15 14 13 9 8 10 11 11 10 10 9 6 4 4 3 6 6 4
15 16 17 17 17 16 16 16 17 16 16 16 16 16 17 16 15 16 16 16 16 16 16 16 15 14 13 10 9 8 7 7 9 9 9 8 4 4 4 4 3 3 4
16 16 16 17 16 16 16 17 16 16 16 16 17 17 17 16 15 15 15 15 15 16 16 15 15 13 12 12 8 7 7 6 8 8 6 4 4 4 5 5 4 4 7
16 16 16 16 16 16 16 16 16 16 16 17 17 17 16 15 15 15 14 15 16 16 14 14 13 13 12 11 11 10 10 7 7 5 6 5 5 5 6 6 6 7 7
15 15 15 16 16 16 16 16 16 16 16 16 16 16 15 15 15 15 15 14 14 13 13 12 11 12 12 10 8 7 7 7 5 5 7 9 9 9 9 8 8 8 8
15 15 16 16 16 15 16 15 15 15 16 15 15 15 15 15 14 15 15 11 9 9 8 8 8 9 8 7 6 6 6 5 4 7 10 10 10 9 9 9 9 8 8